This is the latest recevied weather packets stored in our database for station/object LU9FW-5. If no packets are shown the sender has not sent any weather packets the latest 1 day(s).
| Time | Temp. | Humidity | Pressure | Rain* | Wind** | Luminosity | Snow |
|---|---|---|---|---|---|---|---|
| 1778107760 | 24.44° C | 84% | 996.6 hPa | 0 mm | - | 520 W/m² | - |
| 1778107691 | 24.44° C | 84% | 996.7 hPa | 0 mm | - | 520 W/m² | - |
| 1778106987 | 25° C | 81% | 996.2 hPa | 0 mm | - | 520 W/m² | - |
| 1778106705 | 25° C | 81% | 995.9 hPa | 0 mm | - | 1179 W/m² | - |
| 1778106494 | 24.44° C | 81% | 995.9 hPa | 0 mm | - | 1179 W/m² | - |
| 1778106433 | 24.44° C | 82% | 996.1 hPa | 0 mm | - | 1179 W/m² | - |
| 1778106209 | 24.44° C | 82% | 996 hPa | 0 mm | - | 1179 W/m² | - |
| 1778106149 | 24.44° C | 82% | 995.8 hPa | 0 mm | - | 1179 W/m² | - |
| 1778106068 | 24.44° C | 82% | 995.9 hPa | 0 mm | - | 1179 W/m² | - |
| 1778105783 | 24.44° C | 82% | 995.9 hPa | 0 mm | - | 1179 W/m² | - |
| 1778105723 | 24.44° C | 82% | 995.8 hPa | 0 mm | - | 1179 W/m² | - |
| 1778104658 | 25.56° C | 78% | 995.6 hPa | 0 mm | - | 1654 W/m² | - |
| 1778104518 | 25.56° C | 78% | 995.6 hPa | 0 mm | - | 1654 W/m² | - |
| 1778104370 | 25.56° C | 78% | 995.6 hPa | 0 mm | - | 1654 W/m² | - |
| 1778104308 | 25.56° C | 77% | 995.5 hPa | 0 mm | - | 1654 W/m² | - |
| 1778104168 | 26.11° C | 77% | 995.6 hPa | 0 mm | - | 1654 W/m² | - |
| 1778103888 | 26.11° C | 76% | 995.6 hPa | 0 mm | - | 1654 W/m² | - |
| 1778103808 | 26.11° C | 76% | 995.4 hPa | 0 mm | - | 1654 W/m² | - |
| 1778103606 | 26.67° C | 75% | 995.5 hPa | 0 mm | - | 1654 W/m² | - |
| 1778101632 | 27.78° C | 71% | 994.8 hPa | 0 mm | - | 1873 W/m² | - |
| 1778101572 | 27.78° C | 70% | 994.6 hPa | 0 mm | - | 1873 W/m² | - |
| 1778101536 | 27.78° C | 70% | 994.7 hPa | 0 mm | - | 1873 W/m² | - |
| 1778101421 | 27.78° C | 70% | 994.6 hPa | 0 mm | - | 1873 W/m² | - |
| 1778101136 | 28.33° C | 69% | 994.9 hPa | 0 mm | - | 1101 W/m² | - |
| 1778100710 | 28.33° C | 69% | 994.9 hPa | 0 mm | - | 1101 W/m² | - |
* Rain latest hour (hover to see other rain measurements)
** Current wind speed in m/s (hover to see current wind gust speed)